Lexington Weather

Lexington, Massachusetts, USA

78°F
7/25/2024 12:17pm 
  • Lexington Conditions: Mostly cloudy
  • Temperature: 77.9°F / 25.5°CWarmer 1.4°F than last hour.
  • Dew Point: 72.7°FIncreased 0.7°Fsince last hour.
  • Relative Humidity: 84%Decreased 2.0% since last hour.
  • Wind: Wind from SW SW 2 mph, 10-min avg: 2 mph, gust: 12 mph
  • Barometer: 29.94 in Steady
  • Visibility: 10 miles
  • Rain Today: 0.00 in
  •   

Regional Weather Roundup
for Boston, MA

        
000
ASUS41 KBOX 241110
RWRBOX

REGIONAL WEATHER ROUNDUP
NATIONAL WEATHER SERVICE BOSTON/NORTON MA
700 AM EDT WED JUL 24 2024

NOTE:  "FAIR" INDICATES FEW OR NO CLOUDS BELOW 12,000 FEET WITH NO 
SIGNIFICANT WEATHER AND/OR OBSTRUCTIONS TO VISIBILITY.

MAZALL-241200-
EASTERN MASSACHUSETTS
  
CITY           SKY/WX    TMP DP  RH WIND       PRES   REMARKS
BOSTON         CLOUDY    68  65  90 E3        30.18S                  
BEVERLY        CLOUDY    67  65  93 SE6       30.18S                  
LAWRENCE       CLOUDY    68  65  90 SE3       30.21R                  
BEDFORD        MOSUNNY   69  63  81 S6        30.17S                  
NORWOOD        CLOUDY    71  68  90 NE5       30.17S                  
MARSHFIELD     CLOUDY    66  64  94 SE8       30.18R                  
PLYMOUTH       CLOUDY    67  64  90 E8        30.17R                  
TAUNTON        CLOUDY    70  65  84 E3        30.17R                  
NEW BEDFORD    CLOUDY    71  67  87 E6        30.16R                  
$$

MAZALL-241200-
CAPE COD AND THE ISLANDS
  
CITY           SKY/WX    TMP DP  RH WIND       PRES   REMARKS
FALMOUTH       CLOUDY    66  64  94 E12       30.19R                  
HYANNIS        CLOUDY    65  64  97 VRB5      30.17R                  
CHATHAM        CLOUDY    65  63  93 E8        30.19R                  
PROVINCETOWN   CLOUDY    67  65  93 SE10      30.18S                  
NANTUCKET      LGT RAIN  62  62 100 E14G25    30.17S                  
MARTHAS VNYRD  CLOUDY    67  65  93 E7        30.17R                  
$$
 
MAZALL-241200-
CENTRAL AND WESTERN MASSACHUSETTS
  
CITY           SKY/WX    TMP DP  RH WIND       PRES   REMARKS
WORCESTER      LGT RAIN  66  64  93 SE6       30.20R FOG              
FITCHBURG      CLOUDY    69  66  90 S6        30.19R                  
ORANGE         LGT RAIN  69  67  93 SE3       30.18S FOG              
SPRINGFIELD    CLOUDY    70  68  92 CALM      30.12F                  
WESTFIELD      CLOUDY    70  68  93 CALM      30.14F                  
NORTH ADAMS    MOSUNNY   69  66  90 CALM      30.15F                  
PITTSFIELD     CLOUDY    68  66  93 CALM      30.15F                  
$$
 
RIZALL-241200-
RHODE ISLAND
  
CITY           SKY/WX    TMP DP  RH WIND       PRES   REMARKS
PROVIDENCE     CLOUDY    69  67  93 NE3       30.18R                  
NEWPORT        CLOUDY    67  65  93 E7        30.16R                  
BLOCK ISLAND   CLOUDY    68  68 100 E7          N/A  FOG              
SMITHFIELD     CLOUDY    68  68 100 E3        30.19R                  
WESTERLY       CLOUDY    70  67  90 E9        30.15R                  
$$
 
CTZALL-241200-
CONNECTICUT
  
CITY           SKY/WX    TMP DP  RH WIND       PRES   REMARKS
BRADLEY INTL   CLOUDY    73  68  84 E6        30.14F                  
HARTFORD       CLOUDY    71  67  87 SE6       30.13F                  
PLAINVILLE     CLOUDY    70  69  97 NE3       30.14F                  
BRIDGEPORT     CLOUDY    73  70  90 E8        30.12F                  
DANBURY        CLOUDY    71  70  96 E3        30.14F FOG              
GROTON         CLOUDY    72  69  90 NE6       30.14R                  
NEW HAVEN      CLOUDY    74  71  91 E7        30.13S                  
CHESTER        CLOUDY    70  70 100 NE5       30.15F                  
MERIDEN        CLOUDY    71  67  87 CALM      30.13F                  
WILLIMANTIC    CLOUDY    69  66  90 N5        30.16S                  
OXFORD         FOG       69  69 100 NE6       30.15F VSB 1/4          
$$

MEZ002-015-021-024-NHZ003-005-008-011-012-014-VTZ005-008-241200-
NORTHERN NEW ENGLAND
  
CITY           SKY/WX    TMP DP  RH WIND       PRES   REMARKS
PORTLAND ME    CLOUDY    67  66  97 CALM      30.19F                  
BANGOR ME      CLOUDY    63  62  97 NE3       30.23R FOG              
CONCORD NH     CLOUDY    67  65  93 S5        30.19R                  
MANCHESTER NH  CLOUDY    69  65  86 SE7       30.17R                  
NASHUA NH      CLOUDY    68  32  26 SE3       30.19R                  
PORTSMOUTH NH  CLOUDY    68  65  89 S6        30.18R                  
JAFFREY NH     CLOUDY    68  65  90 S3        30.20R FOG              
KEENE NH       CLOUDY    70  67  90 CALM      30.17S                  
BURLINGTON VT  MOSUNNY   69  63  81 S3        30.13S                  
MT. WASHINGTON DRZL/FOG  52  52 100 S10         N/A  VSB 1/16         
$$

NYZ052-076-241200-
EASTERN NEW YORK
  
CITY           SKY/WX    TMP DP  RH WIND       PRES   REMARKS
ALBANY         CLOUDY    73  68  84 S5        30.13F                  
NEW YORK CITY  FOG       72  69  90 NE13      30.10S VSB 1/4          
$$
 
ANZALL-241200-
MARINE OBSERVATIONS
  
STATION/POSITION TIME  TEMP    WIND        PRES    VSBY  WAVE
                       AIR SEA DIR/SP/G                  HT/PER
                 (UTC) (F)     (DEG/KT/KT) (MB)    (MI)  (FT/S)
BOSTON BUOY      1050   66 65  150/  6/  6 1022.5R         2/ 7
BUZZARDS BAY     1000   67     100/ 11/ 12 1021.0F
NANTUCKET SOUND  1050   64 75  100/ 16/ 19 1021.3R         2/ 3
MASS BAY-STELLWA 0904   66 63  150/  8/ 10 1022.3R  1 7/8  2/ 8
ISLE OF SHOALS   1000   67     150/ 10/ 11 1021.4S
S OF BLOCK IS    1056      74                N/A           4/ 7
$$

......................KEY.........................
  SKY/WX - SKY CONDITION/PRESENT WEATHER
  TMP    - TEMPERATURE IN FAHRENHEIT
  DWPT   - DEWPOINT IN FAHRENHEIT
  RH     - RELATIVE HUMIDITY IN PERCENT
  WIND   - DIRECTION AND SPEED IN MPH
  PRES   - MEAN SEA LEVEL PRESSURE IN INCHES OF HG
  WCI    - WIND CHILL INDEX
  VSB    - VISIBILITY IN MILES
  HX     - HEAT INDEX
  TC     - TEMPERATURE IN CELSIUS
  VRB    - VARIABLE WIND DIRECTION
  N/A    - NOT AVAILABLE
  
      

Other recent Regional Weather Roundups

Thu Jul 25, 11:10am EDT

Thu Jul 25, 10:10am EDT

Thu Jul 25, 9:10am EDT

Thu Jul 25, 8:10am EDT

Thu Jul 25, 7:10am EDT

Thu Jul 25, 6:10am EDT

Thu Jul 25, 5:10am EDT

Thu Jul 25, 4:10am EDT

Thu Jul 25, 3:10am EDT

Thu Jul 25, 2:10am EDT

Thu Jul 25, 1:10am EDT

Thu Jul 25, 12:10am EDT

Wed Jul 24, 11:10pm EDT

Wed Jul 24, 10:10pm EDT

Wed Jul 24, 9:10pm EDT

Wed Jul 24, 8:10pm EDT

Wed Jul 24, 7:10pm EDT

Wed Jul 24, 6:10pm EDT

Wed Jul 24, 5:10pm EDT

Wed Jul 24, 4:10pm EDT

Wed Jul 24, 3:10pm EDT

Wed Jul 24, 2:10pm EDT

Wed Jul 24, 1:10pm EDT

Wed Jul 24, 12:10pm EDT

Wed Jul 24, 11:10am EDT

Wed Jul 24, 10:10am EDT

Wed Jul 24, 9:10am EDT

Wed Jul 24, 8:10am EDT

Wed Jul 24, 6:10am EDT

Wed Jul 24, 5:10am EDT

Wed Jul 24, 4:10am EDT

Wed Jul 24, 3:10am EDT

Wed Jul 24, 2:10am EDT

Wed Jul 24, 1:10am EDT

Wed Jul 24, 12:10am EDT

Tue Jul 23, 11:10pm EDT

Tue Jul 23, 10:10pm EDT

Tue Jul 23, 9:10pm EDT

Tue Jul 23, 8:10pm EDT

Tue Jul 23, 7:10pm EDT

Tue Jul 23, 6:10pm EDT

Tue Jul 23, 5:10pm EDT

Tue Jul 23, 4:10pm EDT

Tue Jul 23, 3:10pm EDT

Tue Jul 23, 2:10pm EDT

Tue Jul 23, 1:10pm EDT

Tue Jul 23, 12:10pm EDT

Tue Jul 23, 11:10am EDT

Tue Jul 23, 10:10am EDT

Tue Jul 23, 10:10am EDT

Tue Jul 23, 9:10am EDT

Tue Jul 23, 8:10am EDT

Tue Jul 23, 7:10am EDT

Tue Jul 23, 6:10am EDT

Tue Jul 23, 5:10am EDT

Tue Jul 23, 4:10am EDT

Tue Jul 23, 3:10am EDT

Tue Jul 23, 2:10am EDT

Tue Jul 23, 1:10am EDT

Tue Jul 23, 12:10am EDT

Mon Jul 22, 11:10pm EDT

Mon Jul 22, 10:10pm EDT

Mon Jul 22, 9:10pm EDT

Mon Jul 22, 8:10pm EDT

Mon Jul 22, 7:10pm EDT

Mon Jul 22, 6:10pm EDT

Mon Jul 22, 5:10pm EDT

Mon Jul 22, 4:10pm EDT

Mon Jul 22, 3:10pm EDT

Mon Jul 22, 2:10pm EDT

Mon Jul 22, 1:10pm EDT

Mon Jul 22, 12:10pm EDT

Mon Jul 22, 11:10am EDT

Mon Jul 22, 10:10am EDT

Mon Jul 22, 9:10am EDT

Mon Jul 22, 8:10am EDT

Mon Jul 22, 7:10am EDT

Mon Jul 22, 6:10am EDT

Mon Jul 22, 5:10am EDT

Mon Jul 22, 4:10am EDT

Mon Jul 22, 3:10am EDT

Mon Jul 22, 2:10am EDT

Mon Jul 22, 1:10am EDT

Mon Jul 22, 12:10am EDT

Sun Jul 21, 11:10pm EDT

Sun Jul 21, 10:10pm EDT

Sun Jul 21, 9:10pm EDT

Sun Jul 21, 8:10pm EDT

Sun Jul 21, 7:10pm EDT

Sun Jul 21, 6:10pm EDT

Sun Jul 21, 5:10pm EDT

Sun Jul 21, 4:10pm EDT

Sun Jul 21, 3:10pm EDT

Sun Jul 21, 2:10pm EDT

Sun Jul 21, 1:10pm EDT

Sun Jul 21, 12:10pm EDT

Sun Jul 21, 11:10am EDT

Sun Jul 21, 10:10am EDT

Sun Jul 21, 9:10am EDT

Sun Jul 21, 8:10am EDT

Sun Jul 21, 7:10am EDT

Sun Jul 21, 6:10am EDT

Sun Jul 21, 5:10am EDT

Sun Jul 21, 4:10am EDT

Sun Jul 21, 3:10am EDT

Sun Jul 21, 2:10am EDT

Sun Jul 21, 1:10am EDT

Sun Jul 21, 12:10am EDT

Sat Jul 20, 11:10pm EDT

Sat Jul 20, 10:10pm EDT

Sat Jul 20, 9:10pm EDT

Sat Jul 20, 8:10pm EDT

Sat Jul 20, 7:10pm EDT

Sat Jul 20, 6:10pm EDT

Sat Jul 20, 5:10pm EDT

Sat Jul 20, 4:10pm EDT

Sat Jul 20, 3:10pm EDT

Sat Jul 20, 2:10pm EDT

Sat Jul 20, 1:10pm EDT

Sat Jul 20, 12:10pm EDT

Sat Jul 20, 11:10am EDT

Sat Jul 20, 10:10am EDT

Sat Jul 20, 9:10am EDT

Sat Jul 20, 8:10am EDT

Sat Jul 20, 7:10am EDT

Sat Jul 20, 6:10am EDT

Sat Jul 20, 5:10am EDT

Sat Jul 20, 4:10am EDT

Sat Jul 20, 3:10am EDT

Sat Jul 20, 2:10am EDT

Sat Jul 20, 1:10am EDT

Sat Jul 20, 12:10am EDT

Fri Jul 19, 11:10pm EDT

Fri Jul 19, 10:10pm EDT

Fri Jul 19, 9:10pm EDT

Fri Jul 19, 8:10pm EDT

Fri Jul 19, 7:10pm EDT

Fri Jul 19, 6:10pm EDT

Fri Jul 19, 5:10pm EDT

Fri Jul 19, 4:10pm EDT

Fri Jul 19, 3:10pm EDT

Fri Jul 19, 2:10pm EDT

Fri Jul 19, 1:10pm EDT

Fri Jul 19, 12:10pm EDT

Fri Jul 19, 11:10am EDT

Fri Jul 19, 10:10am EDT

Fri Jul 19, 9:10am EDT

Fri Jul 19, 8:10am EDT

Fri Jul 19, 7:10am EDT

Fri Jul 19, 6:10am EDT

Fri Jul 19, 5:10am EDT

Fri Jul 19, 4:10am EDT

Fri Jul 19, 3:10am EDT

Fri Jul 19, 2:10am EDT

Fri Jul 19, 1:10am EDT

Fri Jul 19, 12:10am EDT

Thu Jul 18, 11:10pm EDT

Thu Jul 18, 10:10pm EDT

Thu Jul 18, 9:10pm EDT

Thu Jul 18, 8:10pm EDT

Thu Jul 18, 7:10pm EDT

Thu Jul 18, 6:10pm EDT

Thu Jul 18, 5:10pm EDT

Thu Jul 18, 4:10pm EDT

Thu Jul 18, 3:10pm EDT

Thu Jul 18, 2:10pm EDT

Thu Jul 18, 1:10pm EDT

Thu Jul 18, 12:10pm EDT